Starlink 30711

operational
NORAD ID: 57940 Int'l Des: 2023-148 Owner: SPXS Country: US Constellation: starlink
LEOCIRCULAR

Starlink 30711について

説明を読み込み中...

リアルタイム位置

3D地球を読み込み中...

次回通過

高度履歴

Altitude vs Time

uPlot chart will show altitude changes over time

軌道要素

1 57940U 23148F 25350.44587693 .00001983 00000-0 79074-4 0 9996
2 57940 53.1605 51.1315 0001157 105.2994 254.8135 15.30190874125674
Epoch: Dec 16, 2025 • Age: 24 hours

現在のステータス

高度 475.7 km
速度 7.63 km/s
衛星直下点 6.27°N, 171.25°E
打ち上げ日 Sep 25, 2023
運用期間 2.2 years
タイプ internet

技術仕様

分類 Payload
質量 730.00 kg
乾燥質量 700.00 kg
総質量 730.00 kg
長さ 0.30 m
直径 4.10 m
スパン 29.00 m
形状 Box + pan
製造者 SPXS
バスタイプ Starlink V2M
フェーズステータス In Orbit
所有者/国 SPXS/US

大規模コンステレーション

Loading constellations...